Location: *
(50.8512°N, 5.6907°E)
Time: 23:08:51
(UTC+00:00)

Cosmos 1461 - Pass Details

Date: 09 April 2020
Orbit: 507 x 659 km, 65.0° (Epoch: 23 May)

Event Time Altitude Azimuth Distance (km) Brightness Sun altitude
Rises 18:55:23 0° 318° (NW) 2,874 7.7 -5.6°
Reaches altitude 10° 18:57:37 10° 317° (NW) 1,989 6.8 -6.0°
Maximum altitude 19:02:08 80° 232° (SW) 652 3.3 -6.6°
Drops below altitude 10° 19:06:48 10° 146° (SE) 2,048 5.2 -7.3°
Enters shadow 19:07:58 - 145° (SE) 2,509 5.7 -7.5°
